Location: Camerons Lookout
(40.9833°S, 175.9333°E)
Time: 12:18:37
(UTC+00:00)

CZ-4 R/B - Pass Details

Date: 14 January 2026
Orbit: 493 x 539 km, 97.6° (Epoch: 16 February)

Event Time Altitude Azimuth Distance (km) Brightness Sun altitude
Rises 10:18:07 0° 191° (S) 2,739 6.1 -21.1°
Reaches altitude 10° 10:21:36 10° 223° (SW) 1,829 5.1 -21.4°
Maximum altitude 10:22:56 12° 243° (WSW) 1,725 4.6 -21.6°
Drops below altitude 10° 10:24:17 10° 263° (W) 1,814 4.4 -21.7°
Sets 10:27:42 0° 296° (WNW) 2,684 4.9 -22.0°
